Temp
10 10 10 10 10 11 11 11 11 12 11 12 12 12 12 12 13 13 14 14 15 15 16 16 17 17 17 17 18 17 13 14 16 16 16 17 15 17 17 16 16 17 16 17 18
10 10 10 10 10 11 11 11 11 12 12 12 12 12 12 12 13 13 14 14 14 14 15 16 15 15 14 17 16 14 13 15 17 16 15 16 15 14 14 14 15 15 16 17 17
10 10 9 10 10 10 10 10 11 11 11 11 12 12 12 13 13 13 13 13 14 15 15 15 15 15 15 15 15 14 13 15 15 16 15 14 14 15 14 13 14 14 15 16 17
9 9 9 9 9 9 9 10 10 10 10 11 11 12 12 13 15 12 13 14 14 15 15 15 14 13 14 14 15 13 14 14 14 15 14 13 14 13 13 14 15 14 15 15 15
9 9 9 9 9 9 9 9 10 10 11 11 11 12 13 14 12 13 14 14 14 14 15 14 13 13 14 14 14 13 13 14 14 14 13 14 13 13 13 14 15 15 15 14 15
9 10 11 10 9 10 10 9 10 11 11 10 12 12 13 12 14 14 14 14 14 15 15 15 14 14 13 13 13 13 12 12 13 13 13 14 13 15 15 14 14 15 15 15 15
9 10 11 12 11 11 11 11 12 12 12 12 13 13 12 12 14 14 14 14 14 14 14 14 14 13 13 12 13 13 11 12 13 14 14 16 14 14 14 14 14 14 12 13 13
9 10 11 12 12 11 11 12 12 12 12 13 13 13 11 13 14 14 14 14 14 14 14 14 14 13 13 13 13 12 12 11 14 15 15 15 11 14 14 13 13 12 11 11 11
10 10 11 12 12 12 11 12 12 13 13 13 13 14 12 14 14 14 14 14 14 14 14 14 14 12 12 10 9 11 9 11 12 14 14 15 11 13 13 14 13 11 10 11 12
11 10 11 11 12 12 12 13 13 13 14 14 14 13 13 13 13 13 14 14 14 14 13 13 11 10 10 8 9 11 10 11 10 13 14 12 11 12 14 14 12 11 10 10 11
11 10 10 11 11 13 13 12 10 11 12 12 13 14 14 14 14 13 14 14 14 13 11 12 10 9 10 11 13 12 11 10 11 13 12 12 11 13 14 13 12 11 10 10 11
10 10 11 11 10 11 13 7 7 8 10 14 14 13 14 14 13 13 14 12 13 11 12 12 10 13 14 14 13 12 10 10 11 13 13 11 12 13 13 13 11 10 10 11 10
10 10 11 10 10 9 8 7 8 8 9 13 14 14 13 13 13 13 13 13 13 11 12 11 13 14 14 13 12 12 11 11 11 11 12 11 10 11 13 13 12 11 12 12 11
10 10 10 11 10 10 8 7 8 8 9 13 13 13 13 14 13 15 14 13 13 12 13 12 14 14 13 12 12 10 12 12 11 9 7 11 6 10 12 12 12 11 10 11 10
10 9 10 9 9 8 8 7 7 8 12 14 13 14 14 13 14 13 14 13 11 12 12 11 13 13 12 13 13 11 12 11 10 9 8 10 6 8 11 13 11 10 11 11 10
10 9 10 9 8 8 7 7 8 9 10 13 13 14 13 13 14 13 13 13 12 12 11 10 12 12 12 13 12 12 11 9 9 8 1 7 9 8 11 12 11 12 9 10 9
10 9 9 8 7 7 7 7 9 10 14 14 13 14 13 13 13 13 12 10 10 8 9 10 11 12 12 11 11 9 6 2 3 2 3 9 8 8 11 11 11 9 9 8 8
10 9 8 8 8 8 8 7 10 12 13 14 14 13 13 13 13 12 11 10 11 10 5 6 8 12 12 11 11 10 7 2 4 2 5 9 7 8 11 10 11 11 10 9 8
10 9 8 8 8 7 6 7 9 12 12 11 12 12 13 12 10 11 11 10 12 11 7 3 8 11 12 12 10 9 7 8 5 5 2 5 7 10 10 10 10 9 8 7 8
10 9 8 8 8 7 5 9 11 12 11 11 11 13 12 11 10 8 9 11 11 11 8 8 3 8 10 11 10 9 9 5 -0 1 4 6 6 8 8 8 10 8 8 7 7
9 6 7 8 8 5 6 9 12 11 11 10 11 10 11 11 7 8 7 10 11 9 7 6 4 6 8 8 7 7 7 6 4 3 4 5 7 9 9 9 9 8 7 7 7
9 6 7 7 6 4 6 11 9 11 10 10 9 9 9 10 7 6 8 9 11 10 8 7 2 3 5 9 9 8 4 3 3 3 1 2 6 10 9 9 9 10 8 8 8
7 7 7 7 6 5 7 10 10 10 10 9 9 10 10 9 6 6 8 10 9 9 6 7 2 0 3 5 5 5 7 3 -0 -1 5 3 6 10 9 8 9 8 8 8 8
5 7 6 3 6 8 7 8 9 9 9 10 9 9 8 7 8 5 8 10 9 9 10 9 4 2 3 3 -1 1 -0 4 4 5 6 6 6 8 8 8 8 8 8 6 7
5 7 8 7 6 5 7 7 8 8 8 8 6 7 7 3 6 6 7 8 9 9 9 6 4 3 5 6 5 5 4 4 3 5 4 6 6 7 8 7 7 8 7 8 7
5 6 4 4 6 6 7 6 7 7 6 6 6 8 7 3 6 6 6 6 5 6 3 1 4 5 5 5 5 5 6 6 5 6 5 6 6 7 7 7 7 6 8 8 7
6 5 7 6 5 6 6 8 7 7 7 9 7 6 6 7 8 7 6 6 5 3 3 2 1 1 4 5 5 4 5 6 6 6 5 5 5 6 5 7 7 7 7 7 6
Height
807 804 800 796 793 789 786 783 781 780 779 778 776 775 774 774 773 773 775 777 776 776 776 775 775 774 774 773 770 772 792 792 781 781 778 772 776 767 769 771 769 765 766 761 758
806 802 798 795 791 788 785 782 780 779 777 776 774 773 773 773 773 775 777 776 776 776 777 776 777 776 778 773 775 782 793 783 773 776 780 776 777 776 776 774 769 767 760 756 752
805 801 797 793 790 787 784 781 779 777 775 774 773 771 771 772 774 779 779 778 777 778 778 778 779 779 780 777 778 782 787 778 773 774 775 778 777 774 776 775 771 767 760 755 752
804 800 795 792 789 786 783 780 778 775 773 772 771 770 771 771 776 780 780 779 779 778 779 780 781 783 783 784 780 788 780 779 777 776 778 778 775 775 773 769 762 759 755 752 749
802 799 795 791 787 784 781 778 776 774 772 770 770 771 772 775 782 781 781 781 780 781 781 781 783 783 784 783 783 785 782 779 779 777 776 775 775 774 769 760 755 753 750 748 745
802 798 794 789 786 783 780 777 775 773 772 770 771 772 772 782 782 782 782 781 781 781 781 781 783 782 784 784 786 784 784 781 777 774 774 772 771 767 762 757 755 751 747 743 740
802 798 793 789 785 782 780 777 775 774 773 772 773 773 775 784 783 782 782 783 783 782 782 782 783 784 785 787 785 783 789 781 774 769 769 762 768 767 759 755 754 750 749 747 743
801 797 793 789 785 782 780 778 775 775 775 775 775 775 782 782 782 783 783 783 783 783 783 783 784 784 785 786 785 787 789 788 771 767 763 764 778 760 755 756 755 753 749 746 744
800 796 792 788 785 782 780 778 777 776 776 776 776 776 784 783 783 783 783 784 783 784 784 784 784 786 787 793 803 788 805 789 783 769 766 765 773 758 753 751 751 746 746 744 742
800 797 793 789 785 782 779 778 778 778 777 776 777 781 783 784 783 784 784 784 784 784 786 786 788 793 795 803 813 792 801 790 792 773 767 768 768 759 749 748 748 744 743 744 742
800 797 793 789 785 781 777 778 782 783 779 783 783 781 781 784 783 784 784 785 785 786 791 787 796 799 791 788 780 783 789 793 781 769 769 766 766 755 746 744 743 743 744 745 741
800 797 793 790 786 783 780 785 794 795 790 781 781 782 783 784 784 784 785 788 787 790 786 790 795 780 775 776 780 784 790 791 778 766 766 765 760 749 745 740 742 743 743 741 741
799 796 793 789 787 786 786 791 793 793 792 784 782 783 785 786 784 786 786 785 786 789 786 791 780 773 775 779 782 784 787 785 783 772 767 764 762 749 739 735 740 739 737 738 738
798 796 793 788 789 788 790 792 792 792 796 788 785 785 785 784 786 783 784 787 786 786 782 785 774 774 777 781 780 790 776 777 777 785 803 771 794 756 739 738 739 740 740 738 737
798 795 792 788 790 791 794 791 791 792 800 784 785 783 782 786 784 785 784 786 789 786 790 790 777 777 781 778 777 783 776 780 778 783 793 769 798 767 744 735 740 741 736 737 735
796 795 790 791 791 793 792 792 792 798 815 785 782 781 784 783 781 784 786 786 786 787 784 786 776 777 777 775 776 776 780 781 779 787 843 786 778 769 746 736 737 734 741 738 735
794 794 790 790 791 791 791 793 801 803 781 784 783 780 782 781 780 782 785 792 795 804 799 789 777 771 773 780 778 786 806 841 835 839 823 772 777 768 743 737 736 743 739 737 733
794 792 792 790 791 790 791 798 802 788 784 780 780 781 783 780 783 785 786 792 781 788 816 819 801 775 775 779 785 788 801 845 836 840 800 772 780 762 742 740 736 736 735 735 732
792 791 791 790 790 790 793 810 804 787 787 790 784 784 779 784 792 790 788 790 780 783 807 833 798 778 775 776 784 791 806 793 812 807 825 790 768 745 739 740 740 738 737 734 729
791 790 790 790 789 790 801 795 788 786 788 789 792 781 784 786 793 804 797 784 783 784 790 801 829 788 780 777 780 786 787 815 847 851 818 785 774 759 751 748 741 740 737 735 729
790 793 790 790 789 793 803 793 783 786 787 791 791 792 788 789 804 802 801 786 779 788 794 802 818 804 789 788 792 796 795 802 814 819 810 797 764 745 743 743 744 742 737 733 728
788 796 790 790 798 801 801 782 789 785 789 791 794 796 796 793 805 807 798 788 782 786 795 799 824 824 805 779 780 784 806 812 819 820 827 812 754 737 744 742 738 734 732 728 723
788 788 788 789 800 802 792 785 786 787 789 792 791 789 788 793 809 801 792 784 785 788 801 797 823 841 813 800 793 799 790 809 824 828 787 806 761 733 740 740 737 735 729 726 723
787 788 789 792 789 785 791 788 788 787 789 787 788 788 792 796 793 803 789 782 783 786 784 789 808 817 817 812 827 822 821 796 800 792 771 766 754 746 740 737 734 731 727 725 722
780 781 778 784 787 789 786 786 788 790 789 788 795 790 795 816 797 795 787 788 784 782 782 792 803 803 793 787 790 788 791 790 796 778 781 748 752 741 737 734 730 726 724 722 720
774 778 781 785 780 784 785 788 784 784 790 790 791 781 788 803 789 791 789 791 795 786 797 804 795 788 786 784 784 779 767 766 765 760 757 751 746 736 735 731 727 724 718 719 720
763 765 766 773 781 783 778 770 774 777 777 770 777 786 786 780 778 778 781 784 785 796 797 804 807 811 786 776 779 778 756 751 751 746 748 750 743 739 737 730 725 720 715 715 718
Wind_Speed
17 18 19 19 20 19 17 15 10 9 10 9 8 9 10 9 4 3 4 3 1 0 2 6 3 10 7 3 2 2 2 2 3 4 5 10 10 6 6 7 8 7 11 15 28
19 20 21 21 21 19 17 15 11 10 9 8 9 10 9 4 6 14 8 4 1 1 4 4 5 9 4 3 2 3 3 5 0 3 6 10 7 7 7 12 10 13 19 29 32
19 21 22 21 20 19 17 16 12 9 9 8 10 10 4 2 2 4 10 8 6 4 7 6 5 3 3 4 3 5 4 5 8 8 9 7 9 5 6 5 11 14 15 16 23
20 21 23 21 20 20 19 15 12 12 10 10 9 2 3 3 3 3 5 7 5 7 4 2 3 1 2 0 3 2 5 5 6 6 5 7 6 6 7 13 12 12 10 10 11
20 22 23 22 20 19 19 17 13 11 10 9 4 3 5 5 4 4 5 7 5 3 2 2 2 2 1 0 4 3 5 6 7 12 9 7 10 7 8 9 13 13 13 11 11
20 22 24 23 21 20 20 16 10 8 8 8 5 4 2 5 4 3 2 6 2 6 4 1 3 3 1 2 2 4 5 9 8 10 7 7 7 3 8 10 9 12 14 14 14
20 22 25 25 21 20 18 12 9 8 8 9 7 6 11 4 3 2 4 4 5 7 4 10 6 3 3 3 4 4 6 8 4 4 6 2 5 5 9 8 12 13 10 10 14
21 24 25 26 18 20 14 9 8 7 6 6 6 4 4 3 2 3 3 5 5 5 6 4 3 3 1 3 4 2 2 3 7 7 6 2 7 7 10 9 11 7 4 7 9
21 23 24 24 18 18 11 6 7 7 5 4 5 1 2 3 3 4 5 4 4 1 1 1 1 1 1 1 3 1 2 5 8 9 5 2 9 8 11 10 5 6 7 8 10
22 22 23 21 18 16 8 1 2 2 1 3 6 4 0 2 2 2 2 1 2 2 2 1 1 1 2 3 1 3 4 4 6 6 15 8 7 9 14 5 4 4 6 6 7
21 21 21 19 16 18 11 3 5 3 8 2 2 5 3 2 1 2 1 1 2 1 2 4 2 4 8 6 1 1 5 8 10 14 5 6 8 15 17 7 3 5 7 5 5
20 20 19 16 11 19 15 6 2 1 2 1 1 4 3 1 1 2 2 1 2 4 3 3 5 4 3 1 3 5 7 9 8 5 8 10 16 17 10 5 5 6 5 4 5
20 19 17 13 5 11 21 8 2 0 1 1 1 2 3 2 3 4 4 3 3 4 6 4 5 5 2 2 5 5 7 5 7 7 5 10 8 5 9 5 4 5 4 2 2
19 17 17 11 2 3 5 5 2 1 4 0 1 1 1 1 3 4 3 2 3 3 4 5 2 2 1 3 4 5 4 7 10 10 3 6 6 10 17 2 5 5 5 3 4
18 17 14 9 4 4 5 7 1 0 4 2 2 2 1 2 2 1 2 2 3 4 4 6 4 2 3 2 3 6 4 6 8 11 5 8 2 6 7 1 4 7 4 3 3
17 16 9 3 2 3 7 2 1 5 2 0 3 1 2 5 3 5 3 1 4 3 4 7 5 3 6 2 2 8 6 11 10 3 2 5 2 4 2 4 5 2 5 3 5
15 13 8 3 2 6 2 1 4 6 2 1 1 2 3 3 3 5 4 4 3 3 3 6 4 2 4 2 5 9 6 4 6 3 5 6 6 8 11 6 4 7 4 5 6
14 9 6 1 3 4 2 4 6 4 2 1 2 4 4 1 3 4 4 4 4 5 2 2 6 1 1 3 1 3 5 4 5 3 6 12 6 5 2 8 2 2 1 4 6
11 4 2 2 6 2 4 5 6 3 1 5 7 2 1 2 1 3 2 3 1 2 5 2 5 3 1 2 7 2 1 5 3 4 3 4 6 9 5 12 6 8 7 8 8
7 2 4 2 4 2 4 4 4 3 1 1 1 2 2 3 2 2 3 3 3 3 4 0 4 4 4 1 4 6 3 3 3 3 5 5 5 7 7 9 12 10 6 7 6
2 3 0 3 1 4 3 4 4 4 3 3 2 3 3 3 3 3 4 5 2 3 6 3 4 6 4 4 6 2 2 1 3 4 3 5 4 3 12 16 14 9 6 7 5
1 1 1 1 3 1 2 2 0 2 2 1 2 3 3 3 3 3 5 5 3 4 4 5 4 3 10 12 2 3 7 5 3 7 4 2 19 16 10 13 12 8 8 11 3
3 2 1 1 3 2 2 2 2 3 3 5 4 6 3 3 1 5 4 3 6 4 4 3 1 3 9 5 5 2 3 4 1 2 18 7 10 11 17 15 13 14 15 8 4
3 1 0 2 1 3 4 3 2 3 2 3 3 3 2 4 6 4 3 3 7 7 9 5 5 7 7 7 4 2 4 6 7 7 16 17 23 18 17 17 15 15 15 6 1
2 4 1 3 4 3 2 5 4 3 3 4 3 7 6 3 2 5 5 6 4 6 5 5 5 6 13 14 12 14 16 13 13 19 15 27 23 23 20 18 17 16 8 4 3
5 4 1 2 3 6 5 7 8 4 8 5 6 6 10 7 10 7 4 2 7 3 5 1 7 6 11 10 13 17 23 21 20 21 18 22 23 17 15 15 13 8 3 1 2
6 2 3 6 4 4 6 8 11 9 8 7 10 3 7 13 5 5 5 5 6 6 4 2 2 3 7 8 7 11 15 13 7 10 8 10 8 5 7 10 8 9 7 5 2
Wind_Direction
4 2 1 359 356 353 351 348 346 341 340 343 338 327 327 331 2 85 60 351 173 100 336 330 287 360 317 266 136 76 25 251 257 26 294 359 359 343 343 333 334 324 314 306 315
6 4 2 2 0 1 359 357 2 351 344 333 328 329 329 340 96 59 12 134 39 321 20 41 15 351 341 306 42 120 191 232 29 3 331 334 352 331 349 326 312 317 310 311 314
6 4 3 3 3 1 1 1 357 349 346 339 324 323 331 107 154 59 69 63 54 33 54 76 43 19 337 17 355 320 216 319 314 335 356 341 322 321 303 279 281 284 291 295 295
6 5 3 1 359 357 354 351 350 345 338 330 329 14 90 95 84 130 53 36 61 79 76 91 24 2 209 292 321 357 294 307 312 325 324 298 296 294 256 264 271 272 274 284 286
6 5 2 360 357 354 353 348 344 344 356 359 1 94 98 70 67 133 50 25 31 78 33 191 211 283 212 190 350 270 284 281 294 297 284 279 270 261 267 289 302 297 295 283 280
2 3 4 1 356 357 354 353 353 8 13 16 111 99 59 87 111 15 353 3 359 339 187 83 2 319 328 309 245 346 320 295 288 276 251 249 263 251 291 287 293 291 287 279 274
360 0 4 1 360 360 357 11 21 22 41 77 93 42 59 115 67 119 89 48 31 22 8 44 10 24 3 321 347 336 315 315 262 267 222 52 309 267 273 296 290 292 312 344 10
1 2 2 3 4 2 359 11 32 53 81 85 44 39 89 139 118 44 24 114 81 47 38 19 7 330 129 322 307 204 167 313 326 359 296 37 281 288 284 297 298 312 44 26 11
3 1 3 4 6 3 3 32 61 72 94 27 358 89 86 138 83 40 359 30 95 141 118 26 354 243 121 70 340 166 261 313 327 320 301 329 285 275 287 302 283 47 30 18 4
3 360 1 6 8 3 356 317 56 356 329 337 294 39 355 92 81 113 33 53 314 157 302 213 221 35 318 85 239 298 312 289 278 290 307 285 289 293 293 286 202 102 76 39 10
357 360 360 5 14 14 6 72 18 17 32 72 20 101 66 78 138 215 129 257 289 307 252 206 82 239 262 213 209 302 279 275 281 286 304 288 292 300 296 272 195 80 57 19 9
353 359 358 3 23 26 50 71 129 237 2 48 52 97 71 15 296 154 136 119 204 257 266 314 253 219 151 11 315 280 280 285 290 316 332 308 296 282 289 259 191 117 76 33 342
350 357 356 356 31 37 67 75 66 231 135 118 53 41 123 46 317 191 141 309 260 291 299 217 253 185 151 346 318 291 278 288 303 321 280 309 287 258 293 248 142 126 143 186 268
345 354 355 356 58 24 59 352 321 301 88 308 213 121 152 241 330 114 155 88 316 274 319 285 250 109 308 281 278 297 313 335 326 338 296 51 284 331 295 4 166 171 206 169 22
343 350 358 32 4 41 332 334 38 118 49 221 142 169 226 177 247 212 103 115 236 301 70 263 311 345 304 247 9 248 334 304 293 283 330 296 248 266 286 6 179 219 164 101 351
341 347 14 38 52 9 331 28 154 45 289 231 135 190 227 191 220 149 174 175 249 292 235 242 263 259 212 23 297 271 327 308 284 212 3 281 244 274 300 267 200 208 61 23 348
338 348 17 34 156 336 0 31 32 94 227 185 264 200 318 229 233 176 186 191 211 358 342 315 287 90 105 41 8 52 42 327 352 6 220 349 357 254 297 278 19 63 18 346 340
332 333 5 39 344 12 15 52 73 264 5 203 249 276 237 75 30 358 311 286 267 166 52 94 334 14 122 144 162 290 152 154 267 272 277 312 241 250 49 58 66 129 305 322 320
326 327 229 325 343 343 82 50 187 213 296 343 316 208 299 63 91 18 268 255 255 105 162 93 270 345 160 303 127 272 253 209 261 284 3 254 291 313 28 6 18 341 2 352 345
323 265 162 307 344 75 75 175 149 106 94 208 285 331 274 174 176 60 269 282 125 94 111 191 324 275 308 108 263 167 191 20 5 327 287 274 275 249 335 319 338 320 332 323 331
312 24 168 327 46 53 145 193 131 131 146 157 260 304 317 304 140 170 248 297 92 111 89 127 136 289 19 213 204 17 241 120 146 179 251 292 238 226 334 320 314 319 316 313 339
118 6 116 292 55 112 195 152 282 154 137 138 125 219 224 308 268 226 235 213 83 115 173 211 171 231 231 255 278 161 197 150 159 278 224 256 281 268 272 309 310 331 322 308 307
174 211 117 119 165 224 261 178 199 165 187 178 224 207 167 187 285 213 247 183 144 140 173 175 257 341 326 5 9 129 201 168 172 107 259 251 257 306 311 299 301 318 313 302 317
107 213 318 47 237 178 157 193 180 209 245 235 227 227 146 234 207 249 239 264 177 180 202 177 214 181 224 220 155 275 255 239 221 256 281 254 282 290 289 297 302 303 303 267 289
135 223 215 181 233 168 123 153 172 227 214 211 287 205 178 224 240 235 255 257 274 251 234 184 238 217 246 266 270 274 267 255 233 251 251 281 280 283 288 290 290 288 275 275 24
149 156 21 169 116 124 180 204 203 179 171 226 221 202 200 195 199 203 205 188 233 305 169 300 269 268 274 259 258 269 267 270 261 259 255 261 271 277 282 286 286 274 213 252 19
173 143 138 160 159 158 202 191 206 157 232 227 208 195 239 241 223 237 207 204 224 171 190 180 153 23 284 263 304 277 253 253 251 255 233 259 261 287 302 307 298 279 250 158 89